This is the latest recevied weather packets stored in our database for station/object OE3DJB-10. If no packets are shown the sender has not sent any weather packets the latest 1 day(s).
| Time | Temp. | Humidity | Pressure | Rain* | Wind** | Luminosity | Snow |
|---|---|---|---|---|---|---|---|
| 1778408875 | 17.22° C | 46% | 1017.9 hPa | - | - | - | - |
| 1778407974 | 17.22° C | 46% | 1018.2 hPa | - | - | - | - |
| 1778407074 | 16.67° C | 47% | 1018.5 hPa | - | - | - | - |
| 1778406174 | 16.11° C | 47% | 1018.6 hPa | - | - | - | - |
| 1778405274 | 16.11° C | 46% | 1018.5 hPa | - | - | - | - |
| 1778404374 | 15.56° C | 47% | 1018.5 hPa | - | - | - | - |
| 1778403474 | 15.56° C | 47% | 1018.7 hPa | - | - | - | - |
| 1778402573 | 15° C | 47% | 1018.9 hPa | - | - | - | - |
| 1778401673 | 14.44° C | 47% | 1019 hPa | - | - | - | - |
| 1778400773 | 14.44° C | 47% | 1019.1 hPa | - | - | - | - |
| 1778399873 | 13.89° C | 46% | 1019.2 hPa | - | - | - | - |
| 1778398973 | 13.89° C | 47% | 1019.4 hPa | - | - | - | - |
| 1778398073 | 13.33° C | 47% | 1019.7 hPa | - | - | - | - |
| 1778397173 | 13.33° C | 47% | 1019.9 hPa | - | - | - | - |
| 1778396273 | 12.78° C | 47% | 1020 hPa | - | - | - | - |
| 1778395373 | 12.78° C | 46% | 1020 hPa | - | - | - | - |
| 1778394472 | 12.22° C | 46% | 1020.3 hPa | - | - | - | - |
| 1778393572 | 12.22° C | 46% | 1020.3 hPa | - | - | - | - |
| 1778392672 | 12.22° C | 46% | 1020.5 hPa | - | - | - | - |
| 1778391772 | 12.22° C | 46% | 1020.6 hPa | - | - | - | - |
| 1778390872 | 12.22° C | 46% | 1020.5 hPa | - | - | - | - |
| 1778389972 | 12.22° C | 46% | 1020.5 hPa | - | - | - | - |
| 1778389072 | 12.22° C | 46% | 1020.7 hPa | - | - | - | - |
| 1778388172 | 12.22° C | 45% | 1020.6 hPa | - | - | - | - |
| 1778387271 | 12.22° C | 45% | 1020.5 hPa | - | - | - | - |
* Rain since midnight (hover to see other rain measurements)
** Current wind speed in m/s (hover to see current wind gust speed)